This is the latest recevied weather packets stored in our database for station/object N6GPM. If no packets are shown the sender has not sent any weather packets the latest 10 day(s).
| Time | Temp. | Humidity | Pressure | Rain* | Wind** | Luminosity | Snow |
|---|---|---|---|---|---|---|---|
| 1778034039 | 14.44° C | 60% | 1017.8 hPa | 0 mm | - | 12 W/m² | - |
| 1778033736 | 15° C | 60% | 1017.9 hPa | 0 mm | - | 17 W/m² | - |
| 1778033433 | 15° C | 60% | 1017.7 hPa | 0 mm | - | 21 W/m² | - |
| 1778033131 | 15° C | 60% | 1018 hPa | 0 mm | - | 26 W/m² | - |
| 1778032828 | 15° C | 60% | 1017.6 hPa | 0 mm | - | 28 W/m² | - |
| 1778032526 | 15° C | 59% | 1017.8 hPa | 0 mm | - | 33 W/m² | - |
| 1778032222 | 15° C | 58% | 1017.6 hPa | 0 mm | - | 48 W/m² | - |
| 1778031920 | 15.56° C | 58% | 1017.5 hPa | 0 mm | - | 47 W/m² | - |
| 1778031615 | 15.56° C | 58% | 1017.5 hPa | 0 mm | - | 48 W/m² | - |
| 1778031314 | 15.56° C | 57% | 1017.4 hPa | 0 mm | - | 55 W/m² | - |
| 1778031010 | 15.56° C | 57% | 1017.5 hPa | 0 mm | - | 109 W/m² | - |
| 1778030706 | 16.11° C | 57% | 1017.4 hPa | 0 mm | - | 81 W/m² | - |
| 1778030403 | 16.11° C | 56% | 1017.3 hPa | 0 mm | - | 131 W/m² | - |
| 1778030101 | 16.11° C | 57% | 1017.2 hPa | 0 mm | - | 146 W/m² | - |
| 1778029797 | 16.11° C | 55% | 1017.2 hPa | 0 mm | - | 99 W/m² | - |
| 1778029496 | 16.11° C | 55% | 1017.3 hPa | 0 mm | - | 182 W/m² | - |
| 1778029192 | 16.67° C | 55% | 1017.2 hPa | 0 mm | - | 215 W/m² | - |
| 1778028890 | 16.11° C | 54% | 1017 hPa | 0 mm | - | 200 W/m² | - |
| 1778028585 | 16.11° C | 55% | 1017.2 hPa | 0 mm | - | 204 W/m² | - |
| 1778028283 | 16.11° C | 54% | 1017.3 hPa | 0 mm | - | 216 W/m² | - |
| 1778027979 | 16.67° C | 53% | 1016.9 hPa | 0 mm | - | 248 W/m² | - |
| 1778027676 | 16.67° C | 54% | 1016.8 hPa | 0 mm | - | 293 W/m² | - |
| 1778027372 | 16.67° C | 53% | 1017.2 hPa | 0 mm | - | 326 W/m² | - |
| 1778027068 | 16.67° C | 54% | 1016.9 hPa | 0 mm | - | 292 W/m² | - |
| 1778026763 | 16.67° C | 54% | 1017.2 hPa | 0 mm | - | 311 W/m² | - |
* Rain latest hour (hover to see other rain measurements)
** Current wind speed in m/s (hover to see current wind gust speed)